Location: Unspecified
(0.0000°N, 0.0000°E)
Time: 06:02:07
(UTC+02:00)

GP-B - Visible Passes

Search period start: 29 April 2016 00:00
Search period end: 09 May 2016 00:00
Orbit: 632 x 636 km, 89.9° (Epoch: 28 April)

Date Brightness Start Highest point End Pass type
(mag) Time Alt. Az. Time Alt. Az. Time Alt. Az.
30 Apr 5.2 20:29:11 10° SSW 20:33:06 31° W 20:37:00 10° NNW visible
01 May 6.2 07:04:17 10° ENE 07:06:56 16° E 07:09:37 10° SE visible
01 May 6.3 20:52:49 10° WSW 20:54:59 13° W 20:57:09 10° WNW visible
02 May 4.9 07:24:47 10° NNE 07:28:50 36° E 07:32:55 10° SSE visible
04 May 5.7 20:20:01 10° SSW 20:23:38 25° W 20:27:16 10° NW visible
05 May 6.0 06:54:19 10° NE 06:57:29 19° E 07:00:40 10° SE visible
05 May 6.6 20:44:33 10° WSW 20:45:32 11° W 20:46:29 10° W visible
06 May 4.4 07:15:09 10° NNE 07:19:22 45° E 07:23:37 10° SSE visible
08 May 6.6 06:25:57 10° E 06:26:08 10° E 06:26:21 10° E visible
